EA1BQO-1 Weather Reports


time (UTC)temp
C
wind
direction
speed
KPH
gust
KPH
rain 1hr
cm
rain 24hr
cm
rain mn
cm
humidity
%
barometer
mb
20260509104016 13 69 12.9 24.1 0.00 0.36 0.03 71 1003.9
20260509103016 13 90 9.7 17.7 0.00 0.36 0.03 74 1004.2
20260509102016 13 84 8.0 16.1 0.00 0.36 0.03 74 1004.5
20260509101016 13 90 6.4 24.1 0.00 0.36 0.03 72 1004.5
20260509100016 13 72 6.4 19.3 0.00 0.36 0.03 70 1004.3
20260509095015 14 92 6.4 24.1 0.00 0.43 0.03 68 1004.5
20260509094015 14 75 8.0 20.9 0.00 0.43 0.03 73 1004.5
20260509093015 14 103 8.0 22.5 0.00 0.43 0.03 75 1004.5
20260509092015 12 94 9.7 17.7 0.00 0.46 0.03 79 1004.6
20260509091015 12 101 8.0 17.7 0.00 0.46 0.03 76 1004.8
20260509090016 12 109 6.4 20.9 0.00 0.46 0.03 76 1004.8
20260509085016 12 108 9.7 17.7 0.00 0.46 0.03 75 1004.7
20260509084016 12 91 8.0 20.9 0.00 0.46 0.03 74 1004.5
20260509083016 13 114 6.4 19.3 0.00 0.46 0.03 74 1004.5
20260509082018 13 89 11.3 17.7 0.00 0.46 0.03 75 1004.4
20260509081015 12 86 8.0 19.3 0.00 0.46 0.03 76 1004.5
20260509080015 12 77 6.4 20.9 0.00 0.46 0.03 76 1004.6
20260509075015 12 91 6.4 19.3 0.00 0.46 0.03 77 1004.6
20260509074015 12 83 9.7 14.5 0.00 0.46 0.03 77 1004.6
20260509073015 12 97 6.4 16.1 0.00 0.46 0.03 79 1004.5
20260509072015 11 87 3.2 17.7 0.00 0.51 0.03 81 1004.6
20260509071016 11 89 3.2 12.9 0.00 0.51 0.03 82 1004.4
20260509070016 11 80 6.4 16.1 0.00 0.51 0.03 83 1004.5
20260509065016 11 93 6.4 17.7 0.00 0.51 0.03 84 1004.3
20260509064015 11 86 4.8 16.1 0.00 0.51 0.03 85 1004.2
20260509063015 11 67 9.7 17.7 0.00 0.51 0.03 85 1004.1
20260509062015 11 66 6.4 17.7 0.00 0.51 0.03 87 1004.1
20260509061015 10 34 6.4 12.9 0.00 0.51 0.03 88 1004.1
20260509060015 10 58 4.8 12.9 0.00 0.51 0.03 89 1004.5
20260509055015 10 72 6.4 14.5 0.00 0.51 0.03 90 1004.6
20260509054015 10 69 3.2 12.9 0.00 0.51 0.03 90 1004.5
20260509053015 10 69 3.2 11.3 0.00 0.51 0.03 90 1004.3
20260509052015 10 59 6.4 12.9 0.00 0.51 0.03 91 1004.3
20260509051015 10 76 4.8 12.9 0.00 0.51 0.03 91 1004.1
20260509050015 10 82 6.4 17.7 0.00 0.51 0.03 90 1004.1
20260509045015 10 76 6.4 19.3 0.00 0.51 0.03 90 1004.0
20260509044015 10 76 8.0 16.1 0.00 0.51 0.03 88 1003.8
20260509043015 10 84 6.4 17.7 0.00 0.51 0.03 86 1003.8
20260509042015 10 73 8.0 24.1 0.00 0.51 0.03 85 1004.1
20260509041015 11 72 9.7 24.1 0.00 0.51 0.03 83 1003.9
20260509040015 10 94 6.4 17.7 0.00 0.51 0.03 85 1004.1
20260509035015 10 79 8.0 14.5 0.00 0.51 0.03 85 1004.1
20260509034015 11 81 6.4 22.5 0.00 0.51 0.03 83 1004.3
20260509033015 11 92 9.7 19.3 0.00 0.51 0.03 83 1004.4
20260509032014 11 77 8.0 22.5 0.00 0.51 0.03 84 1004.4
20260509031015 11 119 6.4 19.3 0.00 0.51 0.03 84 1004.5
20260509030015 11 98 4.8 25.7 0.00 0.51 0.03 85 1004.6
20260509025015 11 84 6.4 24.1 0.00 0.51 0.03 85 1004.6
20260509024015 10 87 9.7 20.9 0.00 0.51 0.03 86 1004.7
20260509023015 10 80 3.2 20.9 0.00 0.51 0.03 86 1004.8
20260509022015 10 90 6.4 24.1 0.00 0.51 0.03 85 1004.6
20260509021015 10 90 8.0 24.1 0.00 0.51 0.03 86 1004.7
20260509020015 10 94 9.7 24.1 0.00 0.51 0.03 88 1005.0
20260509015015 10 106 6.4 14.5 0.00 0.51 0.03 87 1004.9
20260509014014 10 99 6.4 24.1 0.00 0.51 0.03 87 1005.0
20260509013014 10 86 8.0 20.9 0.00 0.51 0.03 88 1005.2
20260509012014 10 77 6.4 17.7 0.00 0.51 0.03 87 1005.1
20260509011015 10 77 4.8 12.9 0.00 0.51 0.03 87 1005.2
20260509010015 10 80 6.4 14.5 0.00 0.51 0.03 88 1005.6
20260509005015 10 73 3.2 14.5 0.03 0.53 0.03 88 1005.8
20260509004015 10 90 8.0 17.7 0.03 0.53 0.03 88 1005.8
20260509003015 10 69 4.8 9.7 0.03 0.53 0.03 90 1005.9
20260509002015 9 90 4.8 8.0 0.03 0.53 0.03 90 1005.9
20260509001015 9 92 1.6 11.3 0.03 0.53 0.03 90 1006.2
20260509000014 9 91 4.8 19.3 0.03 0.53 0.03 91 1006.3
20260508235014 9 93 6.4 16.1 0.00 0.51 0.00 95 1006.2
20260508234014 8 105 4.8 12.9 0.00 0.51 0.00 99 1006.4
20260508233015 8 107 6.4 11.3 0.00 0.51 0.00 99 1006.2
20260508232015 8 116 3.2 8.0 0.00 0.51 0.00 99 1006.1
20260508231015 8 86 3.2 6.4 0.00 0.51 0.00 99 1006.2
20260508230015 8 90 3.2 6.4 0.00 0.51 0.00 99 1006.1
20260508225014 8 79 1.6 9.7 0.00 0.51 0.00 99 1006.3
20260508224014 8 63 3.2 8.0 0.00 0.51 0.00 99 1006.3
20260508223017 8 74 3.2 6.4 0.00 0.51 0.00 99 1006.5
20260508222014 8 85 3.2 8.0 0.00 0.51 0.00 99 1006.4
20260508221014 8 101 3.2 6.4 0.00 0.51 0.00 99 1006.4
20260508220015 8 97 3.2 6.4 0.00 0.51 0.00 99 1006.6
20260508215014 9 86 1.6 4.8 0.00 0.51 0.51 99 1006.5
20260508214014 9 82 1.6 4.8 0.00 0.51 0.51 99 1006.5
20260508213014 9 111 1.6 6.4 0.00 0.51 0.51 99 1006.6
20260508212014 9 111 0.0 8.0 0.00 0.51 0.51 99 1006.6
20260508211014 10 117 3.2 8.0 0.00 0.51 0.51 99 1006.6
20260508210015 10 73 1.6 3.2 0.00 0.51 0.51 97 1006.6
20260508205515 10 22 0.0 4.8 0.00 0.51 0.51 96 1006.7
20260508205014 10 3 0.0 4.8 0.00 0.51 0.51 96 1006.7
20260508204514 10 311 3.2 3.2 0.00 0.51 0.51 96 1006.7
20260508204014 10 265 0.0 3.2 0.00 0.51 0.51 96 1006.8
20260508203514 10 203 0.0 1.6 0.00 0.51 0.51 95 1006.8
20260508203014 10 181 0.0 3.2 0.00 0.51 0.51 95 1006.8
20260508202514 10 181 0.0 3.2 0.00 0.51 0.51 94 1006.6
20260508202014 10 139 0.0 3.2 0.00 0.51 0.51 94 1006.6
20260508201514 10 111 0.0 3.2 0.00 0.51 0.51 93 1006.3
20260508201014 10 129 0.0 4.8 0.00 0.51 0.51 92 1006.3
20260508200515 10 137 3.2 4.8 0.00 0.51 0.51 90 1006.2
20260508200015 10 151 3.2 4.8 0.00 0.51 0.51 90 1006.2
20260508195514 10 152 0.0 3.2 0.00 0.61 0.51 90 1006.1
20260508195014 11 143 0.0 3.2 0.00 0.61 0.51 89 1006.0
20260508194517 11 137 0.0 3.2 0.00 0.61 0.51 88 1006.0
20260508194014 11 141 1.6 3.2 0.00 0.61 0.51 87 1006.0
20260508193514 11 147 1.6 3.2 0.00 0.61 0.51 86 1006.1
20260508193014 11 89 0.0 3.2 0.00 0.61 0.51 86 1006.0
20260508192514 12 32 0.0 3.2 0.00 0.64 0.51 85 1006.1
20260508192014 12 16 0.0 3.2 0.00 0.64 0.51 85 1005.9
20260508191515 12 1 1.6 3.2 0.00 0.64 0.51 85 1005.9
20260508191015 12 0 0.0 0.0 0.00 0.64 0.51 86 1006.1
20260508185015 12 309 1.6 4.8 0.00 0.64 0.51 86 1005.9
20260508184514 12 0 0.0 0.0 0.00 0.64 0.51 84 1005.9
20260508184014 12 0 0.0 0.0 0.00 0.64 0.51 83 1006.0
20260508183514 12 0 0.0 0.0 0.00 0.64 0.51 83 1005.8
20260508183014 12 0 0.0 0.0 0.00 0.64 0.51 82 1005.8
20260508182514 12 251 0.0 1.6 0.00 0.64 0.51 81 1005.6
20260508181514 12 190 0.0 6.4 0.00 0.64 0.51 80 1005.7
20260508181014 12 185 3.2 6.4 0.00 0.64 0.51 79 1005.7
20260508135801 10 98 8.0 16.1 0.05 0.38 0.23 84 1005.8
20260508134801 12 94 9.7 16.1 0.03 0.36 0.20 78 1005.8
20260508133801 12 198 0.0 4.8 0.03 0.36 0.20 84 1005.5
20260508132801 12 263 0.0 6.4 0.03 0.36 0.20 84 1005.5
20260508131801 13 224 0.0 3.2 0.03 0.36 0.20 83 1005.4
20260508130801 13 297 0.0 1.6 0.00 0.30 0.18 82 1005.3
20260508125801 13 352 0.0 4.8 0.00 0.30 0.18 82 1005.4
20260508124801 13 75 0.0 4.8 0.00 0.30 0.18 84 1005.6
20260508123801 12 92 0.0 6.4 0.00 0.30 0.18 83 1005.8
20260508122801 13 105 0.0 8.0 0.00 0.30 0.18 82 1005.9
20260508121801 13 55 0.0 9.7 0.00 0.30 0.18 88 1006.0
20260508120801 12 43 4.8 8.0 0.00 0.30 0.18 90 1006.1
20260508115801 12 78 0.0 12.9 0.00 0.30 0.18 91 1006.4
20260508114801 11 80 4.8 12.9 0.00 0.30 0.18 93 1006.4
20260508113801 11 71 3.2 6.4 0.00 0.30 0.18 94 1006.6
20260508112801 11 33 0.0 3.2 0.00 0.36 0.18 98 1006.7
20260508111801 10 188 0.0 6.4 0.03 0.36 0.18 99 1006.9
20260508110801 10 205 0.0 6.4 0.05 0.36 0.18 99 1006.8
20260508105801 10 39 0.0 3.2 0.05 0.36 0.18 99 1006.6